SCP
0 0 0 0 0 0 0 0 0 0 0 0 0 0 0 0 0 0 0 0 0 0 0 0 0 0 0 0 0 0 0 0 0 0 0 0 0 0 0 0 0 0 0
0 0 0 0 0 0 0 0 0 0 0 0 0 0 0 0 0 0 0 0 0 0 0 0 0 0 0 0 0 0 0 0 0 0 0 0 0 0 0 0 0 0 0
0 0 0 0 0 0 0 0 0 0 0 0 0 0 0 0 0 0 0 0 0 0 0 0 0 0 0 0 0 0 0 0 0 0 0 0 0 0 0 0 0 0 0
0 0 0 0 0 0 0 0 0 0 -0 -0 -0 0 0 0 0 0 0 0 0 0 0 0 0 0 0 0 0 0 0 0 0 0 0 0 0 0 0 0 0 0 0
0 0 0 0 0 0 0 0 0 0 -0 -0 -0 -0 -0 0 -0 -0 -0 0 0 0 0 0 0 0 0 0 0 0 0 0 0 0 0 0 0 0 0 0 0 0 0
0 0 0 0 0 0 0 0 0 0 -0 -0 -0 -0 -0 -0 -0 -0 -0 -0 -0 0 0 0 0 0 0 0 0 0 0 0 0 0 0 0 0 0 0 0 0 0 0
0 0 0 0 0 0 0 0 0 0 0 0 0 0 0 -0 -0 -0 -0 -0 0 0 0 0 0 0 0 0 0 0 0 0 0 0 0 0 0 0 0 0 0 0 0
0 0 0 0 0 0 0 0 0 0 0 0 0 0 0 0 -0 -0 -0 -0 0 0 0 0 0 0 0 0 0 0 0 0 0 0 0 0 0 0 0 0 0 0 0
0 0 0 0 0 0 0 0 0 0 0 0 0 0 0 0 -0 -0 -0 0 0 0 0 0 0 0 0 0 0 0 0 0 0 0 0 0 0 0 0 0 0 0 0
0 0 0 0 0 0 0 0 0 0 0 0 0 0 0 0 0 0 0 0 0 0 0 0 0 0 0 0 0 0 0 0 0 0 0 0 0 0 0 0 0 0 0
0 0 0 0 0 0 0 0 0 0 0 0 0 -0 -0 0 0 0 0 0 0 0 0 0 0 0 0 0 0 0 0 0 0 0 0 0 0 0 0 0 0 0 0
0 0 0 0 0 0 0 0 0 0 0 0 0 0 -0 -0 0 0 0 0 0 0 0 0 0 0 0 0 0 0 0 0 0 0 0 0 0 0 0 0 0 0 0
0 0 0 0 0 0 0 0 0 0 0 0 0 0 0 -0 -0 0 0 0 0 0 0 0 0 0 0 0 0 0 0 0 0 0 0 0 0 0 0 0 0 0 0
0 0 0 0 0 0 0 0 0 0 0 0 0 0 0 0 0 0 0 0 0 0 0 0 0 0 0 0 0 0 0 0 0 0 0 0 0 0 0 0 0 0 0
0 0 0 0 0 0 0 0 0 0 0 0 0 0 0 0 0 0 0 0 0 0 0 0 0 0 0 0 0 0 0 0 0 0 0 0 0 0 0 0 0 0 0
0 0 0 0 0 0 0 0 0 0 0 0 0 0 0 0 0 0 0 0 0 0 0 0 0 0 0 0 0 0 0 0 0 0 0 0 0 0 0 0 0 0 0
0 0 0 0 0 0 0 0 0 0 0 0 0 0 0 0 0 0 0 0 0 0 0 0 0 0 0 0 0 0 0 0 0 0 0 0 0 0 0 0 0 0 0
0 0 0 0 0 0 0 0 0 0 0 0 0 0 0 0 0 0 0 0 0 0 0 0 0 0 0 0 0 0 0 0 0 0 0 0 0 0 0 0 0 0 0
0 0 0 0 0 0 0 0 0 0 0 0 0 0 0 0 0 0 0 0 0 0 0 0 0 0 0 0 0 0 0 0 0 0 0 0 0 0 0 0 0 0 0
0 0 0 0 0 0 0 0 0 0 0 0 0 0 0 0 0 0 0 0 0 0 0 0 0 0 0 0 0 0 0 0 0 0 0 0 0 0 0 0 0 0 0
0 0 0 0 0 0 0 0 0 0 0 0 0 0 0 0 0 0 0 0 0 0 0 0 0 0 0 0 0 0 0 0 0 0 0 0 0 0 0 0 0 0 0
0 0 0 0 0 0 0 0 0 0 0 0 0 0 0 0 0 0 0 0 0 0 0 0 0 0 0 0 0 0 0 0 0 0 0 0 0 0 0 0 0 0 0
0 0 0 0 0 0 0 0 0 0 0 0 0 0 0 0 0 0 0 0 0 0 0 0 0 0 0 0 0 0 0 0 0 0 0 0 0 0 0 0 0 0 0
0 0 0 0 0 0 0 0 0 0 0 0 0 0 0 0 0 0 0 0 0 0 0 0 0 0 0 0 0 0 0 0 0 0 0 0 0 0 0 0 0 0 0
0 0 0 0 0 0 0 0 0 0 0 0 0 0 0 0 0 0 0 0 0 0 0 0 0 0 0 0 0 0 0 0 0 0 0 0 0 0 0 0 0 0 0
0 0 0 0 0 0 0 -0 -0 0 0 0 0 0 0 0 0 0 0 0 0 0 0 0 0 0 0 0 0 0 0 0 0 0 0 0 0 0 0 0 0 0 0
Wind_Speed
14 13 13 13 13 12 10 11 11 12 13 13 14 15 16 17 18 18 19 18 20 19 17 18 18 15 11 10 9 9 8 8 6 5 5 7 12 11 9 7 6 7 6
13 12 12 12 12 12 12 12 12 12 12 13 14 15 16 17 18 19 20 20 21 21 20 20 20 14 16 13 11 12 10 10 8 8 7 8 10 11 10 9 6 6 7
12 12 12 13 13 13 13 13 12 12 12 11 13 15 16 16 18 19 19 20 21 21 20 21 20 19 20 15 15 13 11 9 8 7 7 5 5 7 9 8 8 8 7
11 11 12 12 13 13 13 13 13 13 12 12 12 14 15 16 17 17 17 19 20 20 20 20 20 22 22 20 16 16 13 12 10 9 7 6 6 7 8 7 7 8 7
11 11 11 12 12 13 13 14 14 13 12 12 12 13 14 14 14 16 17 18 19 20 20 21 21 21 23 20 16 17 16 14 12 11 9 8 8 8 9 8 7 6 5
11 11 11 11 12 12 13 14 14 14 13 13 12 13 14 12 18 24 20 18 18 20 20 20 20 20 21 29 28 26 25 21 18 15 12 12 13 10 9 8 7 5 4
10 10 10 11 12 13 13 14 14 14 14 14 14 13 15 17 23 25 26 19 19 19 20 18 16 16 19 21 27 30 28 29 27 18 17 15 13 14 13 12 8 6 4
10 10 10 11 12 13 14 15 15 14 14 14 14 15 15 16 21 24 24 21 21 21 20 19 19 18 19 21 19 20 20 22 23 16 12 10 9 12 12 10 9 6 4
12 11 11 11 12 14 15 16 15 15 15 15 14 15 16 17 21 23 24 15 17 21 19 19 19 20 24 29 22 21 20 18 22 20 14 13 16 17 14 10 9 7 5
13 12 12 11 11 14 16 17 16 15 16 16 16 15 16 17 20 23 25 14 16 16 15 16 18 19 24 30 23 21 22 19 16 17 16 16 15 16 19 12 10 9 5
13 13 13 13 13 15 16 16 16 16 17 17 18 17 16 17 20 24 26 16 16 15 14 14 15 26 28 30 28 19 21 17 17 17 15 14 13 11 12 10 9 8 8
14 15 15 15 15 14 16 17 17 16 17 18 17 18 14 14 16 21 26 27 24 17 15 12 14 24 28 30 26 24 26 21 13 14 14 13 13 12 10 9 10 8 7
15 16 17 19 17 16 17 18 17 15 15 15 15 15 14 11 13 22 25 28 29 20 14 18 19 24 26 24 29 30 23 16 14 14 14 12 11 11 10 9 9 7 6
19 21 19 19 19 18 15 15 14 14 15 15 15 15 14 13 11 10 11 13 19 20 16 15 24 26 23 20 19 22 16 14 14 13 12 11 11 11 10 9 8 7 5
21 21 20 18 18 17 16 15 17 16 17 18 15 15 15 15 14 16 12 11 10 12 11 10 12 12 14 14 14 14 14 14 13 11 11 12 11 10 9 8 7 7 6
19 18 16 15 15 15 16 17 24 27 31 35 34 30 22 27 28 26 24 24 24 22 14 12 13 14 14 14 14 14 14 14 13 12 12 12 12 11 10 9 8 7 6
19 18 16 15 15 16 16 17 17 19 26 30 32 33 33 32 32 30 27 24 24 24 15 12 13 13 13 13 13 12 13 13 12 12 12 12 11 11 10 9 8 7 6
19 19 18 15 15 15 16 16 16 16 16 15 19 26 29 28 27 27 26 21 15 15 12 12 12 12 12 12 12 11 11 12 11 11 11 11 11 10 10 9 8 7 6
17 15 14 14 15 15 16 16 15 17 16 15 14 16 20 22 22 22 20 14 11 10 10 10 10 10 10 11 11 11 11 11 12 11 11 11 10 9 8 7 7 7 6
15 19 18 15 15 15 15 15 15 14 14 13 13 12 11 10 9 9 10 10 9 8 8 9 9 9 10 10 10 10 10 11 12 10 10 10 9 8 8 8 6 6 6
14 15 19 16 14 14 14 14 13 12 12 11 11 12 16 10 8 7 5 5 6 6 7 9 10 11 10 9 9 11 12 10 10 10 10 9 8 7 6 6 6 5 4
12 12 12 13 13 13 13 11 10 9 9 10 8 8 11 6 3 2 3 5 7 8 9 10 10 9 9 10 11 11 11 11 10 10 10 9 8 7 6 6 5 5 5
12 12 12 11 11 13 12 10 9 7 6 6 6 5 5 5 5 6 6 7 8 8 8 8 9 9 8 8 8 9 10 10 9 10 10 9 8 7 6 6 6 5 5
11 11 11 10 10 10 10 10 9 9 8 8 8 7 7 7 7 8 7 7 8 8 8 8 9 12 14 10 8 7 8 9 9 8 11 9 8 7 6 5 5 6 6
10 10 10 9 9 9 9 9 9 9 9 8 8 7 7 7 7 8 7 8 9 9 10 9 9 10 13 13 11 9 11 13 10 8 7 6 7 7 6 6 5 5 6
10 10 9 9 9 9 9 9 9 9 9 8 8 8 8 8 8 8 8 8 8 8 9 8 10 11 12 10 11 11 10 10 10 9 7 6 6 6 6 5 7 7 8
Wind_Direction
9 6 5 4 360 352 336 315 298 283 268 252 239 230 226 223 220 222 223 220 218 217 214 214 213 205 201 196 190 186 190 192 180 156 167 168 179 189 194 211 232 242 243
1 0 1 1 360 357 348 335 320 300 282 264 251 240 233 227 223 223 225 225 221 219 216 214 214 205 207 199 194 193 192 190 183 169 169 174 188 194 199 211 224 238 245
355 356 357 357 355 352 346 339 330 316 297 277 258 249 241 233 229 226 227 228 227 224 220 216 213 204 207 202 199 196 191 186 185 168 163 165 178 189 197 210 225 233 237
350 351 353 352 348 343 340 338 333 324 310 293 272 257 249 241 234 230 229 231 231 229 225 220 216 210 208 201 198 196 187 183 183 180 168 168 171 171 188 199 206 214 220
341 343 344 341 340 338 337 335 332 326 316 302 285 268 255 247 239 234 231 232 233 232 229 225 221 217 213 204 198 193 186 185 183 189 187 178 181 173 191 186 198 199 224
328 329 330 332 334 334 332 329 327 326 321 311 294 277 264 250 243 237 233 232 233 234 232 228 224 218 213 211 208 199 193 188 186 187 192 196 193 184 171 172 176 188 214
311 314 318 323 325 325 324 323 322 320 316 311 301 290 276 263 254 245 237 233 233 234 233 230 225 220 212 213 213 209 206 207 198 191 192 195 184 180 171 173 179 186 192
297 301 307 314 316 317 317 315 314 313 309 304 300 293 284 273 264 254 244 236 237 236 234 230 227 222 213 209 206 206 206 209 207 202 202 189 175 165 165 162 164 184 231
287 291 298 306 308 310 309 308 308 306 301 297 292 287 281 276 267 259 250 241 239 238 234 231 227 224 216 209 205 205 205 207 207 196 189 172 161 158 154 149 160 172 207
286 289 294 297 298 299 300 300 299 296 292 292 287 282 277 273 267 260 251 243 242 239 232 228 224 221 215 209 207 204 204 198 188 184 182 176 170 170 172 172 169 178 186
292 290 290 293 295 294 293 291 291 290 288 285 282 278 272 267 265 258 249 240 241 240 233 225 222 219 217 213 209 209 208 189 185 181 178 177 174 175 179 176 177 183 190
299 294 294 294 293 290 288 286 285 283 281 279 278 276 269 261 255 253 248 243 241 240 236 225 216 213 213 213 213 210 206 189 183 183 180 178 173 172 168 169 174 185 202
304 297 293 292 288 285 281 281 280 276 271 272 272 273 273 265 256 253 249 247 246 243 239 225 209 206 208 212 214 207 198 189 183 184 182 177 170 161 152 156 163 177 204
299 296 295 293 290 286 280 275 272 270 269 269 269 270 271 268 259 250 246 247 248 248 243 222 207 203 204 204 207 204 195 189 185 184 175 161 150 147 153 155 159 167 187
297 295 294 291 288 287 281 273 273 265 264 269 270 271 272 269 262 252 240 239 236 239 227 200 191 191 198 200 199 193 185 180 179 173 160 150 149 150 153 154 156 163 180
296 295 293 291 289 286 285 283 275 272 274 271 268 266 265 263 265 262 253 243 241 241 222 197 192 191 194 193 191 183 177 175 171 164 157 155 154 154 152 154 160 172 185
291 291 289 286 284 283 281 282 285 283 278 277 276 273 268 266 264 257 249 243 240 239 223 203 196 192 191 187 181 174 171 168 163 160 156 154 151 151 152 157 165 172 183
290 288 285 282 280 279 278 277 278 282 285 281 280 279 276 273 270 263 246 233 233 232 216 203 196 191 186 178 170 165 161 158 158 154 150 149 149 149 152 157 164 170 177
292 287 284 282 280 278 276 275 274 274 275 279 280 280 276 275 276 272 250 223 218 222 210 197 189 183 173 164 159 157 155 155 153 147 144 143 143 145 149 154 159 167 180
293 290 290 287 284 281 278 274 272 271 271 273 275 278 279 275 271 269 244 212 205 210 193 175 163 149 143 143 145 148 149 147 145 140 138 138 140 145 150 156 164 173 187
297 295 295 293 289 287 284 279 274 270 269 271 275 278 281 277 271 268 258 197 178 169 152 139 130 128 129 133 139 145 145 144 142 138 136 137 140 144 150 158 167 182 197
301 301 302 302 301 301 302 298 292 284 281 281 286 296 306 308 312 23 58 78 91 102 116 122 124 128 136 142 144 145 144 142 140 136 133 136 142 148 153 162 174 189 203
311 311 311 313 317 322 329 336 339 338 336 339 344 353 6 26 45 62 74 82 90 97 105 114 119 118 118 124 133 140 142 142 140 140 139 143 149 156 162 171 182 196 214
318 320 322 327 333 340 345 351 356 1 5 9 13 19 25 35 47 56 62 70 80 86 91 99 110 121 121 116 109 107 109 116 123 132 139 145 151 157 165 178 194 208 225
330 331 334 339 344 347 351 356 1 5 10 15 19 25 33 42 51 56 61 68 78 85 90 94 102 109 112 109 105 104 113 114 115 120 129 139 152 161 172 188 204 218 229
343 343 344 346 350 354 356 359 3 6 11 17 23 31 38 45 52 58 61 67 75 77 77 79 90 97 101 99 108 115 123 131 136 140 142 150 161 174 182 203 218 229 240